Dewpoint
36 31 29 33 35 36 27 22 18 22 26 33 36 44 46 48 51 50 51 52 54 54 56 58 58 58 57 58 57 57 58 59 59 58 57 57 56 56 56 56 56 55 55 55
33 30 33 35 36 33 22 19 21 23 27 35 42 42 45 47 49 50 51 51 53 54 56 57 58 58 57 57 57 57 57 59 59 58 57 57 57 56 56 56 56 56 56 56
30 33 36 36 30 28 18 18 21 21 32 36 36 37 43 46 49 50 52 52 53 54 55 56 57 57 57 57 57 57 57 58 59 59 58 57 57 56 55 55 55 55 56 56
35 38 37 34 27 24 17 21 22 23 24 24 21 18 32 45 47 50 51 52 52 53 54 55 56 56 57 57 57 57 57 58 59 60 58 57 55 54 55 55 55 55 55 56
33 36 36 27 23 22 17 23 20 18 19 23 17 25 30 43 44 47 50 52 52 52 54 55 56 57 58 58 57 57 57 57 59 59 58 57 55 54 55 54 54 55 55 55
35 35 25 21 21 18 23 19 20 22 20 15 17 11 24 38 41 45 48 50 51 51 52 55 57 58 58 59 58 57 57 57 57 58 58 57 56 55 53 53 53 54 55 55
28 25 26 22 20 22 21 17 16 16 14 13 16 14 10 13 33 42 45 48 50 52 51 52 54 57 58 58 58 57 57 56 57 57 57 58 57 56 54 53 53 53 54 54
25 22 27 27 20 19 18 18 17 17 15 12 13 11 12 23 31 35 41 49 50 52 52 51 51 55 56 57 58 57 57 56 57 57 57 57 57 56 55 54 54 54 54 54
22 23 29 24 24 20 17 16 19 11 10 11 10 10 12 29 30 31 35 38 38 38 39 41 45 51 54 56 57 58 57 57 58 58 57 58 57 57 56 56 55 55 54 55
28 22 28 25 22 19 17 17 14 14 9 9 9 8 9 16 25 28 30 30 29 30 31 33 34 36 39 46 55 57 57 57 57 58 58 58 58 58 57 57 56 56 55 55
31 22 23 22 21 16 15 14 16 15 15 9 7 8 13 12 23 27 25 25 25 26 27 28 29 31 33 36 41 49 54 57 57 58 58 59 59 59 58 58 57 56 56 55
31 25 20 22 26 28 22 16 14 12 11 14 11 9 25 25 25 25 23 23 23 23 24 26 26 27 29 30 32 35 38 42 43 46 54 58 58 59 59 58 58 57 56 56
30 25 17 17 20 24 23 22 17 18 17 11 9 8 24 23 23 22 22 21 20 20 22 22 23 23 25 27 28 31 33 35 37 41 46 50 57 58 58 58 58 57 57 56
32 30 21 12 16 23 20 22 19 15 12 13 11 9 19 23 23 21 20 19 18 18 18 19 20 21 22 24 25 27 31 34 38 39 42 44 46 48 51 56 58 58 57 56
28 27 28 31 31 28 24 22 19 17 16 11 11 16 17 21 23 21 19 17 16 15 15 16 17 18 19 21 22 24 27 29 33 37 38 38 38 41 44 47 48 52 57 57
22 27 27 27 30 29 26 25 22 19 18 16 17 17 22 22 20 19 17 15 14 13 13 14 15 16 17 18 19 22 25 26 30 29 31 32 32 33 37 39 42 46 48 51
22 25 26 24 28 27 23 25 25 23 22 20 18 19 21 21 21 19 16 13 12 11 12 12 13 14 17 17 18 21 24 24 26 25 25 26 27 29 31 35 40 41 42 45
22 23 25 25 27 21 22 19 20 23 21 19 19 19 20 20 17 14 13 11 10 9 11 11 12 13 15 16 17 20 22 24 23 21 21 23 24 26 28 31 35 38 40 41
24 20 23 23 23 22 21 22 21 22 22 22 20 17 16 14 14 12 9 9 9 9 11 11 12 13 14 13 16 17 20 23 19 19 20 21 23 23 24 25 28 32 36 39
23 20 19 20 19 17 19 20 20 22 21 18 17 15 14 15 19 18 9 8 8 9 9 11 10 12 12 13 14 15 17 20 16 18 19 20 21 21 22 23 25 28 32 35
15 15 18 19 18 18 19 19 21 19 18 14 14 14 14 15 14 10 8 8 8 8 8 9 10 10 11 13 13 13 14 15 15 17 19 19 19 20 20 22 24 26 30 32
11 11 13 16 17 12 19 21 22 21 12 12 11 12 14 11 7 7 7 7 6 6 7 8 9 10 11 11 12 11 12 13 15 16 17 17 17 18 19 21 23 24 27 29
7 11 13 16 16 18 19 19 19 13 13 10 10 8 12 9 6 6 7 6 7 8 8 10 10 10 10 11 11 11 12 14 15 16 16 16 17 17 19 19 20 22 26 27
10 7 10 9 9 13 17 17 15 11 9 8 11 10 8 7 8 11 13 13 13 13 13 14 14 13 13 14 13 13 13 14 15 15 16 16 16 18 18 19 20 22 24 25
9 10 10 10 10 9 9 11 15 12 6 7 10 11 9 6 6 8 7 6 7 7 10 10 10 11 11 12 12 13 14 15 15 15 15 16 17 18 18 19 19 21 23 24
10 8 7 4 7 6 4 8 11 12 7 6 5 5 5 4 5 5 5 6 6 7 11 8 9 10 11 12 13 13 14 15 15 15 15 16 17 17 17 17 18 19 21 22
Wind_Speed
7 6 17 6 24 18 37 28 18 7 3 11 3 13 17 16 15 16 18 21 19 19 15 16 16 17 16 16 17 17 17 14 14 11 11 7 7 6 6 7 9 10 10 11
6 3 3 6 9 26 6 29 15 7 5 9 10 8 9 15 20 20 21 21 20 19 18 17 17 18 20 20 18 16 16 15 14 12 8 5 8 6 6 8 9 8 10 11
11 6 10 13 20 27 9 29 13 20 9 11 12 4 4 5 10 15 13 15 14 20 21 19 19 21 20 19 20 20 19 17 15 14 10 5 7 4 5 7 7 9 11 11
8 11 12 13 20 28 16 13 15 17 14 15 3 10 2 4 11 14 16 15 15 17 18 19 20 22 22 23 22 21 20 19 17 16 15 14 13 10 9 10 10 12 12 13
3 9 14 22 13 12 8 14 14 8 12 11 2 5 5 6 11 17 18 16 17 19 18 23 24 24 23 21 22 22 21 21 19 19 19 19 15 11 9 10 11 11 11 12
7 3 4 4 9 5 17 16 10 7 5 13 1 3 10 14 15 14 11 16 18 18 19 20 20 19 21 20 20 21 20 21 20 22 20 20 20 16 11 10 12 10 10 11
17 6 4 6 14 5 10 23 9 4 3 8 4 2 1 2 2 7 23 14 13 18 19 17 20 19 18 19 19 20 22 20 20 21 20 20 20 21 19 18 16 14 12 10
9 16 4 5 7 12 16 10 13 11 13 12 1 9 7 1 4 4 6 11 8 8 11 14 13 13 16 17 19 20 21 20 18 20 21 18 19 16 15 16 14 14 15 17
7 5 5 4 3 5 10 11 13 10 3 3 3 4 5 6 4 6 8 9 7 5 6 6 5 4 12 18 20 20 21 20 21 22 21 20 18 17 17 17 18 16 15 13
4 10 4 3 1 9 5 11 12 6 12 8 6 9 14 13 12 5 4 3 5 5 6 6 6 6 6 5 8 14 16 20 20 20 17 17 19 20 19 16 18 17 16 18
7 3 3 1 3 5 6 6 4 8 5 13 9 13 8 17 14 13 5 2 3 5 6 6 7 8 8 9 10 5 1 10 12 13 15 16 15 17 18 19 19 20 17 18
7 4 5 3 1 2 2 5 5 14 11 3 4 8 1 5 6 7 6 3 3 5 6 7 9 9 10 11 11 11 10 9 8 6 4 13 15 13 14 16 18 17 19 17
7 2 8 0 1 0 2 1 3 6 4 11 12 6 2 4 5 4 6 5 4 5 7 8 10 11 12 12 12 12 12 11 11 9 8 7 7 14 16 18 16 14 17 17
1 2 4 17 5 2 7 8 5 2 9 7 11 3 9 15 14 9 7 7 6 6 7 7 9 10 10 11 12 12 12 12 11 10 9 8 9 9 9 7 13 14 16 17
3 3 1 3 1 3 4 8 14 15 9 10 7 10 5 17 19 14 10 8 7 6 7 7 7 8 9 11 12 12 12 13 13 10 8 9 11 10 10 10 9 9 12 16
6 1 2 2 1 5 5 10 11 11 9 14 8 11 3 6 13 12 11 10 9 7 5 5 6 7 8 9 10 10 11 13 12 11 10 11 11 11 11 11 11 9 9 11
2 4 3 5 6 6 11 17 17 10 8 9 19 11 15 13 18 20 17 14 11 8 5 5 4 5 6 7 8 9 10 10 10 10 11 12 12 12 13 13 11 10 11 10
0 3 2 4 4 12 7 2 2 14 11 11 8 6 12 7 6 10 9 13 10 6 3 3 4 5 6 7 9 9 9 9 8 10 10 12 12 12 12 12 11 12 11 11
4 2 4 6 9 8 6 8 9 9 13 19 24 15 12 13 7 3 4 6 7 5 3 2 4 4 6 7 9 9 9 8 9 10 11 11 11 12 12 11 12 12 12 12
5 4 2 4 5 8 6 4 4 4 17 1 5 12 17 17 17 10 15 10 8 6 3 1 3 3 5 7 8 6 7 7 10 12 12 12 12 12 12 12 13 12 11 12
5 2 9 8 8 11 3 12 8 7 6 4 6 14 18 11 2 8 12 8 6 5 4 3 3 3 4 6 7 6 6 6 10 11 12 12 12 13 11 12 12 13 13 12
11 12 8 5 6 12 12 7 10 3 2 5 5 12 17 13 14 14 13 12 9 6 4 3 2 2 3 5 7 7 7 10 10 11 11 12 12 12 12 12 12 13 12 12
7 8 4 14 9 2 15 4 4 6 6 8 11 9 12 13 9 10 8 9 7 4 2 2 2 2 3 4 5 6 9 10 11 11 12 12 13 13 12 14 14 12 11 10
7 4 6 3 5 18 15 13 7 10 6 9 10 13 13 12 12 11 8 4 1 1 2 3 3 3 4 5 6 5 7 9 10 11 12 11 12 14 13 12 12 12 12 12
2 9 6 11 19 14 19 19 13 12 9 11 10 11 14 14 12 10 8 7 5 3 1 3 4 5 6 7 7 8 8 9 11 11 11 10 10 11 12 11 12 13 12 13
13 12 13 14 4 2 2 2 11 19 18 17 17 13 10 11 13 10 10 7 5 3 1 1 2 4 6 8 9 10 9 9 10 12 13 13 13 12 12 13 13 12 15 18
Wind_Direction
112 117 207 150 184 145 156 155 147 97 108 119 136 149 169 173 173 173 171 171 167 172 166 161 163 170 172 174 169 168 169 166 153 154 159 169 179 183 186 192 188 179 166 164
99 109 174 349 239 144 164 146 128 92 101 107 111 116 174 183 183 179 172 177 174 164 164 163 170 174 180 181 179 177 180 173 173 172 170 157 177 193 194 186 186 187 178 175
83 111 123 238 152 149 154 161 149 142 103 64 126 97 156 199 195 178 182 165 177 172 172 171 179 182 182 187 188 188 187 184 183 181 165 120 135 108 155 180 194 202 195 190
65 149 170 169 151 157 152 133 123 131 139 155 9 197 222 203 171 175 172 172 183 189 187 184 189 191 189 193 196 192 190 186 188 179 183 187 187 182 192 190 197 197 202 200
71 135 163 156 161 153 141 138 135 117 114 129 96 117 179 168 196 184 183 185 185 197 193 196 196 197 195 196 194 194 196 186 188 190 190 193 195 210 179 184 196 197 201 206
107 188 94 96 74 102 137 124 95 71 100 185 109 134 209 191 196 205 202 201 192 194 197 197 200 195 197 197 194 192 194 191 190 188 191 193 196 202 193 197 200 208 205 209
90 52 82 96 109 111 142 139 138 142 218 192 349 225 292 223 239 221 204 196 189 198 198 198 194 194 197 198 196 189 186 195 192 195 196 197 198 201 208 207 208 209 210 211
106 122 18 1 134 160 158 163 152 157 178 191 345 226 185 177 72 51 81 181 166 193 201 201 199 199 194 195 195 198 198 198 192 196 202 200 199 199 201 204 203 210 207 214
114 65 325 71 116 144 171 183 147 108 52 147 215 278 260 159 102 72 82 92 87 57 50 49 29 208 207 202 200 199 195 202 199 201 201 200 198 206 209 207 210 211 212 213
81 105 5 348 73 55 167 149 152 137 155 182 222 220 213 194 192 165 124 82 30 20 37 27 24 10 3 353 246 211 211 205 203 201 202 206 207 208 212 213 215 214 213 206
5 88 122 77 15 156 139 182 91 124 156 189 180 228 204 203 183 180 175 95 40 20 28 22 21 27 22 27 33 43 273 232 226 216 214 214 216 215 213 212 216 213 209 211
11 69 93 117 161 349 340 174 153 191 200 169 209 234 36 148 144 157 159 126 71 56 41 38 32 27 34 30 32 38 34 38 24 12 319 237 228 219 220 223 221 214 211 211
339 59 130 20 310 119 183 242 122 110 120 201 202 236 141 140 150 135 154 135 104 74 62 52 42 35 26 26 28 28 29 21 10 3 359 344 275 231 225 227 227 220 222 217
325 64 177 193 191 181 184 178 180 127 212 197 231 235 217 207 198 181 160 145 121 96 76 68 54 41 29 25 24 21 17 13 2 12 16 11 7 3 359 300 236 221 221 226
64 182 289 233 216 208 200 206 192 205 191 212 239 213 238 213 198 184 169 156 137 106 75 60 50 41 31 23 18 16 14 8 2 13 20 7 1 354 353 357 359 347 243 228
1 278 330 244 6 7 264 236 222 227 217 231 209 232 190 141 139 163 175 170 158 142 115 75 53 42 33 22 14 9 7 5 5 16 14 5 359 355 354 347 343 346 335 357
24 149 141 264 344 333 270 232 214 210 197 201 230 229 167 179 184 184 179 179 171 158 140 109 69 29 19 15 8 5 359 2 17 16 10 6 359 354 352 341 338 343 338 334
73 142 155 198 154 225 264 9 234 223 239 225 220 206 186 184 138 148 164 164 152 137 98 46 31 16 6 5 2 354 359 5 18 15 7 1 356 349 347 344 340 337 330 324
194 167 166 206 217 299 270 228 200 202 266 218 219 186 168 134 105 203 141 132 139 132 115 51 12 6 359 2 356 355 1 6 9 2 353 347 343 339 337 338 336 331 327 323
150 80 169 163 222 233 250 152 124 123 261 275 209 177 159 145 199 209 169 158 148 138 119 81 25 23 20 357 353 2 3 2 357 345 336 331 331 330 328 327 326 318 312 306
164 174 208 201 237 277 275 152 145 190 262 159 153 160 160 185 189 135 142 143 139 146 132 85 42 28 6 356 352 6 0 359 337 329 324 324 324 322 318 321 320 319 315 309
186 176 193 162 209 268 157 133 190 173 132 182 171 169 169 159 151 154 161 161 162 166 146 106 89 33 6 7 0 356 350 337 328 325 322 323 322 319 317 315 316 316 311 308
231 206 206 202 221 195 198 209 199 175 156 182 182 185 172 157 165 162 168 164 162 160 133 82 29 2 20 18 7 348 335 329 328 326 326 325 323 323 322 323 320 316 313 309
231 191 246 307 237 235 215 217 204 187 190 176 171 164 165 169 160 160 156 168 184 9 13 2 4 14 5 360 350 338 327 330 324 323 322 323 326 326 328 323 317 313 313 314
224 163 214 256 277 266 255 236 218 196 172 162 159 167 169 162 165 167 164 170 169 154 85 351 341 338 341 342 337 339 340 339 336 332 329 330 329 323 322 318 310 310 301 303
190 203 201 252 236 235 270 262 223 198 192 181 167 162 163 165 166 163 170 175 178 174 130 328 326 328 337 340 336 339 341 343 338 336 336 330 327 325 325 322 317 306 301 303